Northeast Ohio Regional Airport


Codes: KHZY/JFN
Name: Northeast Ohio Regional Airport
City: Ashtabula
Country: United States
Elevation: 924 ft.
Website:
Wikipedia:

Photos at Northeast Ohio Regional Airport


   Photos courtesy of SpottingLog. You can add your own sightings and photos by signing up for a free trial today.



No photos found.

Weather at Northeast Ohio Regional Airport


Time (UTC)DescriptionTempratureWindCloud coverageVisibilityPressureHumidity
21-Feb-2024 03:00Few Clouds0°C7 mph, S16%10000m1026hPa72%
21-Feb-2024 06:00Scattered Clouds-0°C9 mph, S31%10000m1026hPa80%
21-Feb-2024 09:00Overcast Clouds-1°C9 mph, S92%10000m1025hPa86%
21-Feb-2024 12:00Scattered Clouds-1°C11 mph, S49%10000m1025hPa82%
21-Feb-2024 15:00Clear Sky5°C13 mph, S2%10000m1023hPa64%
21-Feb-2024 18:00Scattered Clouds9°C13 mph, S50%10000m1021hPa57%
21-Feb-2024 21:00Broken Clouds9°C11 mph, S80%10000m1018hPa63%
22-Feb-2024 00:00Overcast Clouds5°C13 mph, S89%10000m1017hPa79%
22-Feb-2024 03:00Overcast Clouds5°C13 mph, S96%10000m1016hPa78%
22-Feb-2024 06:00Overcast Clouds5°C13 mph, S98%10000m1015hPa80%
22-Feb-2024 09:00Light Rain4°C13 mph, S100%10000m1012hPa93%
22-Feb-2024 12:00Light Rain4°C13 mph, S100%10000m1009hPa96%
22-Feb-2024 15:00Light Rain5°C13 mph, S100%10000m1007hPa94%
22-Feb-2024 18:00Moderate Rain6°C13 mph, S100%6596m1003hPa95%
22-Feb-2024 21:00Moderate Rain7°C9 mph, S100%10000m1000hPa98%
23-Feb-2024 00:00Moderate Rain7°C9 mph, S100%8555m998hPa98%
23-Feb-2024 03:00Light Rain4°C7 mph, NW100%136m998hPa99%
23-Feb-2024 06:00Light Rain3°C7 mph, NW100%157m999hPa98%
23-Feb-2024 09:00Overcast Clouds3°C11 mph, NW100%1078m1000hPa97%
23-Feb-2024 12:00Overcast Clouds1°C9 mph, NW100%10000m1002hPa93%
23-Feb-2024 15:00Overcast Clouds1°C9 mph, NW100%10000m1004hPa88%
23-Feb-2024 18:00Overcast Clouds3°C9 mph, NW99%10000m1004hPa79%
23-Feb-2024 21:00Overcast Clouds1°C11 mph, NW94%10000m1005hPa86%
24-Feb-2024 00:00Overcast Clouds-1°C11 mph, N97%10000m1008hPa73%
24-Feb-2024 03:00Overcast Clouds-3°C11 mph, N90%10000m1010hPa72%
24-Feb-2024 06:00Overcast Clouds-4°C11 mph, N94%10000m1012hPa66%
24-Feb-2024 09:00Overcast Clouds-5°C9 mph, N100%10000m1013hPa63%
24-Feb-2024 12:00Overcast Clouds-5°C9 mph, N97%10000m1015hPa60%
24-Feb-2024 15:00Overcast Clouds-4°C11 mph, N93%10000m1017hPa50%
24-Feb-2024 18:00Broken Clouds-3°C9 mph, NW80%10000m1018hPa46%
24-Feb-2024 21:00Clear Sky-3°C7 mph, NW9%10000m1018hPa47%
25-Feb-2024 00:00Clear Sky-5°C4 mph, W8%10000m1020hPa62%
25-Feb-2024 03:00Clear Sky-5°C7 mph, SW2%10000m1020hPa64%
25-Feb-2024 06:00Clear Sky-5°C9 mph, S5%10000m1020hPa64%
25-Feb-2024 09:00Overcast Clouds-3°C11 mph, S85%10000m1017hPa58%
25-Feb-2024 12:00Overcast Clouds-2°C13 mph, S92%10000m1016hPa58%
25-Feb-2024 15:00Clear Sky3°C18 mph, S10%10000m1014hPa58%
25-Feb-2024 18:00Broken Clouds7°C20 mph, SW55%10000m1011hPa58%
25-Feb-2024 21:00Light Rain7°C20 mph, SW100%10000m1009hPa67%
26-Feb-2024 00:00Overcast Clouds6°C16 mph, SW100%10000m1010hPa77%